Regional Weather Roundup
Issued by NWS

Home | Current Version | Previous Version | Text Only | Print | Product List | Glossary On
Versions: 1 2 3 4 5 6 7 8 9 10 11 12 13 14 15 16 17 18 19 20 21 22 23 24 25 26 27 28 29 30 31 32 33 34 35 36 37 38 39 40 41 42 43 44 45 46 47 48 49 50
000
ASUS43 KMPX 271701
RWRMN
WEATHER ROUNDUP FOR MINNESOTA
NATIONAL WEATHER SERVICE TWIN CITIES/CHANHASSEN MN
1100 AM CST THU NOV 27 2014


NOTE: "FAIR" INDICATES FEW OR NO CLOUDS BELOW 12,000 FEET WITH NO
SIGNIFICANT WEATHER AND/OR OBSTRUCTIONS TO VISIBILITY. N/A MEANS
CURRENT SKY AND/OR WEATHER CONDITIONS ARE NOT AVAILABLE.

MNZ060>063-068>070-271800-
   Twin Cities Metro

CITY           SKY/WX    TMP DP  RH WIND       PRES   REMARKS
TWIN CITIES    SUNNY      5  -4  66 N5        30.51F WCI  -4
ST PAUL        SUNNY      4  -5  66 NW5       30.54F WCI  -5
CRYSTAL        SUNNY      4  -5  66 W3        30.51F
BLAINE         SUNNY      5  -2  72 N3        30.50F
LAKEVILLE      SUNNY      1  -6  71 W3        30.50F
EDEN PRAIRIE   SUNNY      5  -4  66 VRB3      30.50F
SOUTH ST PAUL  SUNNY      5  -5  62 CALM      30.52F
LAKE ELMO      FAIR       5  -4  66 NW3       30.51F
$$
MNZ001>005-007-008-013>017-022>024-027-028-271800-
   Northwest Minnesota

CITY           SKY/WX    TMP DP  RH WIND       PRES   REMARKS
BEMIDJI        SUNNY     -5 -12  73 SW5       30.42F WCI -16
HALLOCK        SUNNY      1  -4  78 S14       30.44F WCI -17
ROSEAU         SUNNY     -2  -8  78 SW7       30.44S WCI -16
WARROAD        SUNNY     -4  -8  84 S7        30.42F WCI -18
THIEF RVR FALL SUNNY     -4  -6  92 SW8       30.44F WCI -19
CROOKSTON      SUNNY     -2  -8  78 S9        30.49F WCI -18
FOSSTON        SUNNY     -4  -9  77 CALM      30.44F
DETROIT LAKES  SUNNY      0  -4  85 S3        30.44F
MOORHEAD       SUNNY     -2  -4  92 S5        30.48F WCI -12
PARK RAPIDS    SUNNY     -1  -7  75 VRB3      30.42F
$$
MNZ006-009>011-018-025>026-271800-
   North Central Minnesota

CITY           SKY/WX    TMP DP  RH WIND       PRES   REMARKS
BAUDETTE       SUNNY     -6 -11  79 CALM      30.42F
FLAG ISLAND    SUNNY     -4  -9  77 CALM      30.41F
INTL FALLS     SUNNY     -2  -7  79 CALM      30.43F
WASKISH        SUNNY     -4  -8  84 CALM      30.43F
BIG FORK       SUNNY      0  -8  71 CALM      30.42F
LONGVILLE      SUNNY      0  -6  78 SW3       30.44F
GRAND RAPIDS   SUNNY     -2  -6  84 CALM      30.42S
CRANE LAKE     SUNNY     -4  -9  77 CALM      30.45F
ORR            SUNNY     -2  -9  71 CALM      30.38F
COOK           SUNNY     -4  -8  84 W3        30.42F
WALKER         FAIR      -4  -9  79 CALM      30.44S
$$
MNZ012-019>021-037-271800-
   Northeast Minnesota

CITY           SKY/WX    TMP DP  RH WIND       PRES   REMARKS
DULUTH         SUNNY      1  -8  66 NW8       30.39S WCI -13
ELY            SUNNY     -2  -9  71 NW6       30.39F WCI -14
HIBBING        SUNNY      0  -8  69 NW7       30.42F WCI -13
EVELETH        SUNNY      0  -8  71 CALM      30.41F
DULUTH HARBOR  SUNNY      3  -6  66 CALM      30.50F
TWO HARBORS    SUNNY      9  -2  61 NW6       30.39F WCI  -1
SILVER BAY     SUNNY      7  -6  56 NW5       30.39S WCI  -2
GRAND MARAIS     N/A      7  -7  52 NW15G31   30.42S WCI -10
G MARAIS ARPRT SUNNY     -2 -11  65 NW6       30.30F WCI -14
$$
MNZ029>031-032-039>041-046>048-054>057-064-271800-
   West Central Minnesota

CITY           SKY/WX    TMP DP  RH WIND       PRES   REMARKS
FERGUS FALLS   SUNNY      0  -9  65 CALM      30.50F
WHEATON        SUNNY     -2  -8  78 E6        30.50F WCI -14
MORRIS         SUNNY      0  -8  71 SE5       30.47F WCI -10
ALEXANDRIA     SUNNY      0  -6  76 CALM      30.45F
ELBOW LAKE     FAIR      -1  -6  80 E3        30.46F HAZE
WADENA         SUNNY      0  -6  78 S3        30.44F
GLENWOOD       SUNNY      1  -6  71 CALM      30.46F
APPLETON       SUNNY      1  -8  66 E3        30.50F
BENSON         MOSUNNY   -2  -6  84 CALM      30.49F
ORTONVILLE     SUNNY     -2  -9  71 SE5       30.48F WCI -12
MADISON          N/A      0  -6  78 CALM      30.50F
WILLMAR        FAIR       1  -6  71 CALM      30.49F
$$
MNZ033>034-036-042>043-049>051-058-059-271800-
   Central Minnesota

CITY           SKY/WX    TMP DP  RH WIND       PRES   REMARKS
ST CLOUD       SUNNY      3  -7  63 CALM      30.50F
SAUK CENTRE    FAIR      -1  -8  73 CALM      30.48F
PAYNESVILLE    SUNNY     -3  -9  77 CALM      30.50S
AITKIN         SUNNY      3  -6  66 CALM      30.44F
PINE RIVER     SUNNY      0  -8  71 NW3       30.47F
BRAINERD       SUNNY     -1  -7  75 CALM      30.46F
STAPLES        SUNNY     -2  -8  78 CALM      30.45F
LONG PRAIRIE   FAIR       0  -6  78 CALM      30.46F
LITTLE FALLS   SUNNY      1  -8  66 CALM      30.49F
LITCHFIELD     SUNNY      1  -6  71 CALM      30.50F
BUFFALO        SUNNY      2  -5  72 CALM      30.52F
MAPLE LAKE     SUNNY      2  -4  75 W3        30.52S
$$
MNZ037-044-045-052-053-271800-
   East Central Minnesota

CITY           SKY/WX    TMP DP  RH WIND       PRES   REMARKS
PRINCETON      SUNNY      3  -6  66 CALM      30.49F
MORA             N/A    N/A N/A N/A MISG        N/A
CAMBRIDGE      SUNNY      3  -6  66 NW6       30.48F WCI  -8
RUSH CITY      SUNNY      4  -6  65 CALM      30.50F
MOOSE LAKE     SUNNY      3  -8  60 N3        30.45F
HINCKLEY         N/A      5  -4  66 CALM      30.48S
CLOQUET        SUNNY      1  -8  66 NW8       30.42F WCI -12
MCGREGOR       SUNNY      1  -6  71 N5        30.46F WCI  -8
$$
MNZ071>073-080-081-089-090-097-098-271800-
   Southwest Minnesota

CITY           SKY/WX    TMP DP  RH WIND       PRES   REMARKS
MONTEVIDEO     SUNNY      3  -6  66 CALM      30.51F
GRANITE FALLS  SUNNY     -2  -8  76 CALM      30.53F
CANBY          SUNNY     -1  -7  74 SE5       30.50F WCI -11
MARSHALL       SUNNY     -2 -11  65 CALM      30.50F
REDWOOD FALLS  SUNNY      0  -5  79 CALM      30.52F
OLIVIA         SUNNY      1  -6  71 CALM      30.50F
PIPESTONE      SUNNY      3  -6  66 SE3       30.43F
WINDOM         SUNNY     -2  -8  78 CALM      30.48F
WORTHINGTON    SUNNY      0  -6  78 CALM      30.47F
JACKSON        SUNNY      0  -6  78 CALM      30.48S
TRACY          SUNNY     -1  -7  76 CALM      30.49F
SLAYTON        SUNNY      1  -7  70 CALM      30.46S
$$
MNZ065>067-074>077-082>085-091>093-271800-
   South Central Minnesota

CITY           SKY/WX    TMP DP  RH WIND       PRES   REMARKS
MANKATO        SUNNY     -6  -9  84 W3        30.51F
NEW ULM        SUNNY     -8 -11  84 W5        30.53S WCI -19
ST JAMES       SUNNY     -4  -9  77 NW3       30.53F
FAIRMONT       SUNNY     -2  -9  71 N5        30.49F WCI -12
GLENCOE        SUNNY      2  -4  77 NW5       30.51F WCI  -8
FARIBAULT      SUNNY      1  -6  71 CALM      30.50F
OWATONNA       SUNNY     -4  -9  77 CALM      30.49F
WASECA         SUNNY     -4  -9  77 CALM      30.52F
ALBERT LEA     SUNNY     -2  -8  78 N5        30.48F WCI -12
$$
MNZ078>079-086>088-094>096-271800-
   Southeast Minnesota

CITY           SKY/WX    TMP DP  RH WIND       PRES   REMARKS
ROCHESTER      SUNNY      0  -5  79 NW12      30.46S WCI -17
RED WING         N/A      7  -6  56 N3        30.50F
STANTON        SUNNY      2  -5  72 W5        30.50F WCI  -7
DODGE CENTER   SUNNY      0  -6  78 NW7       30.46S WCI -13
WINONA         SUNNY     10   1  67 NW5       30.51S WCI   2
AUSTIN         SUNNY      0  -8  71 NW7       30.47F WCI -13
PRESTON        SUNNY      3  -3  74 NW9       30.45F WCI -12
$$
ABBREVIATIONS USED IN REMARKS
   TC - TEMPERATURES IN CELSIUS
  WCI - WIND CHILL INDEX
   HX - HEAT INDEX
  VSB - VISIBILITY
$$



USA.gov is the U.S. government's official web portal to all federal, state and local government web resources and services.